Wind_Speed
25 29 34 34 32 32 32 33 35 34 34 36 35 34 32 31 31 30 30 29 27 26 26 27 27 27 27 29 30 33 34 34 34 33 32 30 29 30 31 31 31 31 33 33
20 22 23 23 23 25 29 30 31 32 34 33 33 34 33 31 27 25 25 25 24 24 25 27 28 29 29 30 30 31 33 35 37 38 39 38 38 37 37 37 37 37 37 38
18 20 20 20 19 17 18 21 24 26 28 28 28 28 29 31 30 26 24 24 25 26 27 28 29 30 31 32 32 34 35 37 38 40 41 42 43 43 43 43 42 42 42 43
19 18 17 17 14 11 10 11 13 15 17 18 20 21 21 21 22 23 26 28 28 27 26 26 27 28 28 29 30 32 34 36 37 39 41 43 45 46 46 47 46 46 46 46
17 15 14 14 11 8 7 6 6 8 9 11 14 16 17 18 19 20 23 27 28 26 25 26 25 25 25 25 27 28 30 32 34 35 37 39 40 40 41 43 44 45 45 44
18 14 11 11 8 6 4 4 3 4 4 5 7 9 10 11 13 13 13 14 17 19 21 22 21 22 22 24 25 27 28 30 32 33 35 36 35 35 35 35 34 33 33 33
20 15 12 10 5 2 3 5 4 4 4 4 6 7 8 10 12 13 15 16 17 18 19 19 19 19 22 24 25 25 25 25 25 26 26 26 26 25 26 26 26 25 25 26
19 17 15 12 6 2 2 4 4 4 3 3 5 7 9 12 14 16 17 17 18 18 19 20 20 21 21 22 22 22 21 19 18 16 15 14 15 16 18 19 20 19 19 20
16 16 16 14 10 6 3 2 3 3 4 5 7 8 10 11 12 14 15 16 18 19 21 21 21 20 18 17 17 16 16 16 16 16 15 15 15 16 17 19 19 18 18 18
10 12 13 13 12 9 6 2 1 2 4 6 7 8 9 10 11 12 13 15 18 19 20 20 18 16 15 15 14 12 12 13 15 17 19 19 19 20 21 22 22 22 22 22
7 7 8 9 10 9 7 5 3 2 1 1 2 3 4 5 6 7 9 10 12 13 14 15 16 16 16 16 15 14 13 14 16 18 19 20 20 22 23 23 24 24 25 27
10 8 6 5 5 5 5 5 5 6 6 6 5 4 4 4 5 6 7 8 8 9 10 11 13 15 16 17 17 17 16 16 17 18 19 20 21 22 23 25 25 27 29 31
14 12 10 8 6 4 2 1 1 1 1 1 1 1 2 3 4 5 6 6 7 7 7 7 8 10 12 13 15 15 16 17 18 19 19 20 21 22 23 25 27 29 32 35
19 17 16 14 12 10 9 8 7 6 5 5 5 5 5 5 5 6 6 6 6 5 5 5 6 7 9 10 12 13 15 17 18 19 20 21 22 23 24 26 27 30 32 35
22 21 21 20 18 16 14 13 12 11 10 10 9 9 9 9 9 9 10 9 8 7 7 7 7 7 8 9 11 12 13 15 16 17 19 19 20 21 22 24 25 27 30 32
24 24 25 25 24 22 20 18 17 16 15 13 13 13 13 13 12 12 12 12 11 11 10 10 10 10 10 11 12 12 13 14 15 17 19 20 21 22 23 23 24 26 28 31
24 26 28 30 30 28 26 24 21 20 19 18 17 16 16 15 14 14 13 14 14 14 13 13 13 12 13 13 14 15 15 16 17 19 20 20 21 22 23 24 25 27 30 32
24 25 27 30 32 33 31 28 26 24 22 22 21 20 19 19 18 17 17 16 16 16 15 15 15 15 16 17 17 18 18 19 20 19 18 18 19 20 21 23 26 29 33 36
27 27 29 30 31 32 33 32 29 27 25 24 23 22 21 21 21 21 20 20 19 19 18 17 17 18 19 20 20 20 20 20 19 18 18 19 20 22 24 27 31 35 38 39
29 28 29 30 31 31 31 33 33 31 28 26 25 23 22 21 21 22 22 22 22 23 22 20 20 20 21 22 22 21 20 19 19 19 21 23 24 26 29 33 37 40 41 43
31 30 29 29 29 29 29 31 33 34 32 29 27 25 23 21 21 21 21 21 22 23 22 22 21 21 22 23 22 21 20 19 19 21 24 25 27 29 33 37 40 42 44 44
31 31 30 29 28 27 27 28 29 31 32 32 29 27 25 23 21 20 19 20 20 20 20 21 21 21 22 22 21 21 20 19 20 23 26 27 30 33 36 39 42 43 43 43
31 31 30 29 27 26 25 24 25 26 27 29 29 28 27 25 23 21 19 20 19 19 19 20 20 21 21 20 20 21 22 21 23 26 28 30 33 35 38 41 42 42 41 40
32 32 31 30 29 27 25 24 24 25 25 25 26 27 27 26 24 22 22 21 20 19 19 20 20 20 20 20 20 21 21 22 25 28 30 33 36 38 40 40 40 40 39 37
34 33 33 33 32 29 27 26 24 24 24 24 24 24 25 25 24 24 24 23 22 21 20 20 19 19 19 19 21 21 22 23 26 29 32 34 36 38 39 38 38 36 35 32
34 34 34 35 35 34 33 30 28 26 25 25 25 26 26 25 24 23 21 21 21 21 20 20 19 19 19 20 21 22 23 25 27 29 32 34 36 37 36 36 35 33 31 29
33 33 34 35 36 36 36 36 34 32 31 31 30 29 28 27 25 23 21 20 21 21 20 19 19 19 21 23 23 24 25 27 28 30 32 34 35 35 34 34 33 31 30 28
Wind_Direction
286 277 272 272 269 259 256 259 258 256 255 257 258 255 251 248 244 245 246 245 243 242 242 244 249 254 259 260 259 258 260 259 258 260 262 263 262 261 262 264 265 265 266 266
304 292 289 288 281 267 259 257 255 254 253 254 257 258 254 249 241 237 239 240 240 243 247 253 257 261 266 268 267 265 264 261 260 260 261 262 262 262 262 263 264 265 267 267
317 302 297 295 289 280 267 258 254 255 256 258 261 263 259 257 255 251 247 246 248 253 257 259 260 262 265 267 267 267 265 263 262 262 261 261 261 262 261 261 261 262 263 265
330 318 308 303 305 303 290 270 257 258 259 258 259 258 253 253 256 254 251 249 250 255 258 262 265 267 270 270 268 266 265 264 264 263 262 262 262 263 262 262 262 262 262 262
337 325 312 307 305 301 290 274 253 245 244 244 244 241 246 252 258 263 260 254 252 255 261 267 269 271 273 274 274 273 271 270 269 267 267 266 266 265 265 264 264 265 265 265
353 339 328 314 300 288 266 256 238 210 213 222 225 234 247 264 271 274 272 266 264 264 265 266 269 272 276 278 278 276 273 270 269 268 268 268 267 265 264 263 263 264 265 265
7 358 352 345 327 284 234 230 216 202 203 228 247 258 262 267 271 272 271 271 268 262 259 262 268 277 284 286 284 280 274 269 268 269 268 266 264 260 258 258 258 261 263 263
16 14 10 15 19 31 195 198 210 213 225 267 282 279 274 272 272 273 275 274 267 260 260 266 275 284 288 288 285 279 272 267 267 268 265 261 258 257 259 262 265 267 267 265
19 23 25 28 35 49 81 152 200 222 249 273 281 282 281 281 281 279 276 271 267 267 271 277 283 287 287 288 287 280 272 267 265 264 263 262 262 263 267 270 272 273 273 271
7 21 30 35 40 45 54 78 174 244 264 279 284 287 288 288 288 286 282 277 278 281 283 284 281 277 276 281 286 287 280 272 268 265 264 262 264 267 269 270 271 272 274 275
329 354 14 29 40 49 58 70 82 82 65 1 328 318 313 310 310 308 305 301 299 296 291 285 279 276 276 278 279 281 283 279 275 275 275 273 271 271 269 269 271 273 275 273
296 306 321 339 7 39 61 81 94 95 94 92 88 76 51 33 19 8 355 343 331 320 305 294 287 283 281 277 276 277 278 280 281 282 282 281 279 276 272 272 269 266 265 262
283 284 286 288 293 300 297 260 183 155 112 88 50 8 3 7 10 8 2 355 350 344 332 316 302 293 286 282 281 280 280 280 281 282 283 284 283 280 276 273 270 266 263 263
282 282 280 277 275 275 273 269 265 264 270 280 286 295 307 317 326 333 334 331 331 335 336 328 315 302 293 289 288 287 286 286 286 286 286 286 285 284 283 280 277 274 272 271
276 279 280 278 274 271 269 268 271 273 276 278 279 282 286 291 298 305 309 309 308 310 314 314 310 303 295 290 289 289 289 291 292 292 292 293 293 293 293 292 291 290 288 285
267 270 273 274 273 270 267 265 266 270 274 276 277 278 279 282 286 292 298 300 298 297 299 303 305 303 298 294 293 294 296 297 297 297 297 296 296 297 298 299 301 303 304 303
270 267 268 270 269 267 266 264 263 266 270 273 275 277 278 279 282 286 290 293 295 294 294 295 296 296 294 292 293 295 299 302 302 302 300 298 296 296 297 299 302 306 308 307
279 277 277 278 275 266 260 260 261 263 266 269 272 275 278 279 280 282 284 287 289 291 292 291 292 293 291 290 292 294 298 302 304 305 304 303 304 305 307 309 311 314 314 313
284 285 286 284 283 277 264 256 256 258 262 266 270 274 276 278 279 281 282 284 286 288 291 292 292 293 292 292 295 296 297 300 305 310 314 316 315 316 316 317 318 318 317 316
287 288 288 287 284 282 276 263 255 253 256 260 264 269 273 276 279 280 281 283 284 287 291 295 295 295 295 296 297 297 295 299 307 315 319 318 316 317 319 320 320 319 318 316
284 283 284 285 285 283 280 274 266 258 254 254 257 260 265 270 276 279 281 282 283 288 292 295 297 298 299 299 298 296 295 299 309 317 320 320 319 320 321 321 319 318 317 317
279 279 279 281 283 284 282 280 279 273 264 258 255 256 258 263 269 274 279 282 285 289 291 294 297 300 302 301 297 292 295 302 312 318 320 320 321 322 321 318 317 317 318 319
278 276 275 277 280 282 281 279 279 281 277 271 264 261 258 258 263 270 276 280 287 291 293 294 298 301 303 302 296 291 294 302 312 318 320 322 322 320 317 315 315 317 321 322
278 275 273 273 275 276 276 273 272 274 275 274 272 269 264 261 263 267 273 277 284 290 292 294 298 302 301 299 297 297 299 306 314 318 319 320 317 315 313 313 316 320 322 323
273 271 270 270 270 271 271 268 264 263 266 266 266 265 264 263 265 268 271 275 279 285 289 292 296 301 301 299 300 300 302 308 312 316 317 314 312 312 313 315 318 320 322 323
269 266 266 266 267 268 267 265 260 254 254 256 256 257 259 261 264 266 269 275 279 282 286 290 292 296 301 303 302 302 305 308 310 312 313 312 312 312 314 316 319 320 320 321
267 263 261 262 264 264 264 263 261 255 249 246 245 248 253 256 258 259 264 274 281 282 284 288 289 293 300 305 305 304 305 305 305 306 310 313 313 313 315 318 320 320 318 318
Height
5745 5741 5737 5735 5734 5734 5735 5735 5735 5736 5737 5737 5738 5740 5742 5744 5745 5746 5748 5750 5752 5754 5756 5758 5760 5761 5762 5763 5764 5765 5765 5766 5766 5767 5768 5768 5767 5767 5767 5767 5768 5768 5768 5768
5736 5732 5728 5726 5725 5724 5724 5724 5725 5727 5728 5729 5730 5732 5735 5736 5738 5739 5741 5744 5746 5748 5751 5752 5753 5755 5755 5755 5755 5755 5756 5756 5757 5757 5758 5758 5758 5758 5758 5759 5759 5759 5759 5759
5730 5726 5722 5720 5718 5716 5715 5716 5718 5719 5721 5721 5723 5725 5727 5729 5731 5733 5736 5738 5740 5742 5744 5746 5746 5747 5747 5746 5746 5746 5745 5745 5745 5745 5745 5746 5746 5747 5747 5747 5748 5748 5748 5748
5725 5721 5718 5717 5713 5712 5711 5711 5712 5713 5713 5715 5717 5719 5721 5723 5725 5727 5728 5731 5733 5735 5737 5738 5738 5738 5737 5737 5736 5735 5734 5734 5733 5733 5733 5733 5733 5733 5734 5734 5735 5735 5736 5736
5723 5718 5714 5712 5709 5708 5709 5709 5709 5709 5710 5711 5713 5715 5717 5719 5720 5721 5722 5723 5725 5727 5729 5729 5729 5729 5728 5727 5727 5726 5725 5724 5723 5723 5723 5722 5722 5722 5722 5722 5722 5723 5723 5724
5721 5715 5712 5710 5706 5705 5706 5706 5707 5707 5708 5709 5710 5712 5714 5714 5715 5716 5717 5718 5719 5720 5721 5721 5721 5721 5720 5719 5718 5717 5716 5715 5714 5714 5713 5712 5712 5712 5712 5712 5713 5713 5713 5713
5721 5715 5711 5706 5703 5703 5705 5705 5704 5704 5705 5706 5707 5708 5710 5710 5710 5711 5712 5713 5713 5714 5714 5715 5714 5714 5712 5710 5709 5708 5707 5706 5705 5705 5704 5703 5703 5703 5704 5704 5705 5705 5705 5705
5722 5717 5714 5706 5703 5703 5703 5702 5702 5702 5703 5703 5704 5704 5704 5704 5705 5705 5706 5706 5707 5708 5709 5708 5708 5706 5704 5702 5700 5699 5699 5698 5698 5698 5697 5697 5697 5698 5698 5698 5698 5698 5698 5698
5724 5721 5714 5708 5705 5703 5701 5701 5701 5701 5701 5701 5701 5700 5700 5700 5700 5700 5700 5700 5701 5701 5701 5700 5699 5699 5697 5696 5695 5693 5693 5692 5692 5692 5693 5693 5692 5692 5693 5693 5693 5693 5693 5692
5724 5720 5715 5711 5707 5704 5702 5701 5700 5700 5699 5699 5699 5698 5697 5697 5697 5696 5696 5695 5695 5694 5693 5692 5692 5691 5691 5690 5690 5688 5688 5687 5687 5687 5687 5687 5687 5687 5687 5687 5687 5687 5686 5686
5722 5719 5716 5713 5710 5707 5705 5702 5701 5700 5699 5698 5698 5697 5696 5695 5694 5693 5692 5691 5690 5688 5687 5687 5686 5686 5686 5685 5685 5684 5683 5682 5682 5681 5681 5681 5681 5680 5680 5680 5679 5679 5678 5678
5721 5718 5715 5713 5710 5708 5706 5704 5702 5701 5699 5698 5698 5697 5696 5695 5693 5692 5690 5688 5686 5685 5683 5683 5682 5681 5681 5680 5679 5679 5678 5678 5677 5676 5675 5675 5674 5673 5672 5672 5672 5671 5671 5670
5716 5714 5713 5711 5708 5706 5705 5704 5702 5700 5699 5698 5697 5696 5695 5694 5692 5691 5689 5687 5685 5683 5681 5680 5679 5678 5677 5676 5675 5674 5674 5673 5672 5671 5670 5669 5667 5666 5665 5664 5664 5663 5662 5661
5710 5709 5709 5707 5705 5704 5702 5701 5700 5698 5697 5696 5695 5694 5692 5691 5690 5689 5687 5685 5683 5681 5679 5678 5676 5675 5673 5672 5671 5670 5669 5668 5666 5665 5664 5662 5661 5659 5658 5656 5655 5653 5652 5650
5704 5703 5703 5702 5701 5699 5698 5697 5696 5695 5694 5693 5692 5690 5689 5688 5687 5686 5684 5682 5680 5678 5676 5674 5673 5671 5670 5668 5666 5665 5664 5663 5661 5660 5658 5656 5654 5652 5650 5648 5645 5643 5641 5639
5696 5696 5695 5694 5694 5693 5692 5691 5691 5690 5689 5688 5687 5686 5685 5684 5682 5681 5679 5678 5676 5674 5672 5670 5669 5667 5666 5664 5662 5660 5659 5657 5655 5654 5652 5649 5647 5645 5642 5640 5637 5635 5633 5630
5688 5687 5686 5685 5684 5684 5684 5684 5684 5683 5683 5682 5681 5681 5680 5679 5677 5676 5674 5673 5671 5670 5668 5666 5665 5663 5662 5660 5658 5656 5654 5652 5649 5647 5645 5643 5641 5638 5636 5633 5631 5628 5625 5622
5679 5678 5677 5675 5674 5673 5674 5674 5675 5675 5675 5675 5674 5674 5673 5672 5671 5670 5669 5667 5666 5664 5663 5661 5660 5658 5657 5655 5653 5651 5648 5646 5644 5641 5639 5637 5634 5632 5629 5626 5623 5620 5615 5610
5669 5668 5667 5666 5664 5662 5662 5663 5664 5665 5666 5666 5666 5666 5666 5665 5664 5663 5662 5661 5659 5658 5657 5656 5654 5652 5650 5649 5647 5645 5642 5640 5638 5635 5633 5630 5628 5625 5622 5619 5615 5610 5605 5600
5661 5659 5658 5656 5654 5653 5652 5652 5653 5654 5655 5656 5658 5658 5658 5657 5656 5655 5655 5654 5652 5651 5650 5649 5648 5646 5644 5642 5641 5639 5636 5634 5632 5629 5626 5624 5621 5618 5614 5610 5605 5600 5594 5588
5651 5649 5648 5646 5645 5644 5643 5642 5642 5643 5644 5646 5648 5649 5649 5649 5649 5648 5648 5647 5646 5644 5643 5642 5641 5639 5638 5636 5634 5632 5630 5627 5625 5623 5620 5617 5613 5609 5605 5600 5595 5590 5584 5577
5640 5639 5637 5636 5635 5634 5633 5633 5633 5634 5634 5636 5637 5639 5640 5641 5641 5641 5641 5640 5639 5638 5636 5635 5634 5633 5631 5629 5627 5625 5623 5621 5619 5616 5613 5609 5605 5601 5596 5591 5586 5580 5574 5567
5629 5628 5627 5625 5625 5624 5624 5624 5625 5625 5625 5627 5628 5629 5631 5632 5632 5633 5633 5632 5631 5630 5629 5628 5627 5625 5623 5621 5620 5618 5617 5615 5613 5610 5606 5601 5597 5593 5588 5583 5578 5571 5565 5558
5617 5617 5616 5615 5614 5614 5615 5615 5616 5616 5617 5618 5619 5620 5621 5622 5623 5624 5624 5624 5624 5623 5622 5621 5620 5618 5616 5614 5613 5612 5610 5608 5605 5602 5598 5593 5589 5585 5581 5575 5569 5563 5557 5550
5605 5604 5604 5604 5603 5604 5605 5605 5606 5607 5608 5609 5610 5611 5612 5613 5614 5615 5615 5616 5615 5615 5614 5613 5612 5610 5609 5608 5606 5605 5603 5600 5598 5594 5590 5587 5583 5578 5573 5567 5561 5555 5549 5544
5592 5592 5592 5592 5592 5592 5593 5594 5596 5597 5598 5600 5602 5603 5603 5605 5605 5606 5606 5607 5607 5607 5606 5605 5604 5603 5602 5601 5599 5597 5595 5592 5589 5586 5583 5579 5575 5570 5564 5559 5553 5548 5543 5538
5579 5579 5579 5580 5580 5580 5581 5582 5583 5585 5587 5589 5591 5593 5594 5596 5597 5597 5598 5598 5598 5598 5598 5598 5597 5596 5595 5594 5591 5589 5587 5584 5582 5579 5576 5571 5567 5562 5556 5551 5546 5540 5536 5531